When you browse on this site, cookies collect data to enhance your experience and personalize the content and advertising you see.
Visit our Privacy Policy to learn more. By continuing to use the site, you agree to this use of cookies and data.
  • In Lithuania
  • List of Countries
  • For 7 days
  • Water Temperature
  • Weather Map
  • Weather Widgets
  • user-avatar
    Login

    Hourly Weather Hobart

    Today, 6 December, Friday

    Time Temperature Precipitation Wind Pressure Humidity
    00:00 +8°C° 0.1 mm 6 mps 733 mmHg 84%
    01:00 +8°C° 0.1 mm 6 mps 733 mmHg 82%
    02:00 +8°C° 0.1 mm 6 mps 733 mmHg 82%
    03:00 +8°C° 0.1 mm 6 mps 733 mmHg 82%
    04:00 +8°C° 0 mm 6 mps 732 mmHg 84%
    05:00 +8°C° 0.1 mm 6 mps 732 mmHg 82%
    06:00 +8°C° 0.1 mm 7 mps 733 mmHg 80%
    07:00 +8°C° 0.1 mm 7 mps 733 mmHg 78%
    08:00 +8°C° 0.4 mm 7 mps 733 mmHg 82%
    09:00 +7°C° 0.4 mm 6 mps 733 mmHg 85%
    10:00 +7°C° 0 mm 5 mps 733 mmHg 88%
    11:00 +7°C° 0.2 mm 6 mps 733 mmHg 86%
    12:00 +8°C° 0.2 mm 6 mps 734 mmHg 84%
    13:00 +8°C° 0.2 mm 7 mps 734 mmHg 83%
    14:00 +6°C° 0.6 mm 7 mps 734 mmHg 86%
    15:00 +7°C° 0.6 mm 6 mps 735 mmHg 89%
    16:00 +7°C° 0.6 mm 6 mps 735 mmHg 91%
    17:00 +5°C° 0.3 mm 6 mps 736 mmHg 89%
    18:00 +5°C° 0.3 mm 6 mps 737 mmHg 86%
    19:00 +6°C° 0.3 mm 5 mps 737 mmHg 83%
    20:00 +6°C° 0 mm 5 mps 738 mmHg 84%
    21:00 +5°C° 0 mm 5 mps 738 mmHg 85%
    22:00 +5°C° 0 mm 4 mps 739 mmHg 86%
    23:00 +5°C° 0 mm 5 mps 739 mmHg 84%

    Tomorrow, 7 December, Saturday

    Time Temperature Precipitation Wind Pressure Humidity
    00:00 +5°C° 0 mm 5 mps 739 mmHg 82%
    01:00 +6°C° 0 mm 5 mps 739 mmHg 80%
    02:00 +5°C° 0 mm 6 mps 739 mmHg 79%
    03:00 +5°C° 0 mm 6 mps 739 mmHg 78%
    04:00 +7°C° 0 mm 6 mps 738 mmHg 77%
    05:00 +7°C° 0.2 mm 6 mps 739 mmHg 80%
    06:00 +8°C° 0.2 mm 6 mps 739 mmHg 83%
    07:00 +8°C° 0.2 mm 5 mps 739 mmHg 86%
    08:00 +9°C° 0.5 mm 5 mps 739 mmHg 87%
    09:00 +10°C° 0.5 mm 4 mps 739 mmHg 88%
    10:00 +11°C° 0.5 mm 4 mps 740 mmHg 89%
    11:00 +11°C° 0.4 mm 4 mps 740 mmHg 87%
    12:00 +10°C° 0.4 mm 5 mps 741 mmHg 85%
    13:00 +12°C° 0.4 mm 5 mps 741 mmHg 82%
    14:00 +11°C° 0.1 mm 6 mps 741 mmHg 77%
    15:00 +13°C° 0.1 mm 6 mps 742 mmHg 71%
    16:00 +13°C° 0.1 mm 6 mps 742 mmHg 65%
    17:00 +13°C° 0 mm 5 mps 743 mmHg 68%
    18:00 +12°C° 0 mm 5 mps 744 mmHg 70%
    19:00 +11°C° 0 mm 4 mps 745 mmHg 72%
    20:00 +11°C° 0 mm 4 mps 745 mmHg 77%
    21:00 +10°C° 0 mm 3 mps 746 mmHg 82%
    22:00 +9°C° 0 mm 3 mps 746 mmHg 87%
    23:00 +9°C° 0 mm 3 mps 746 mmHg 87%

    Day after tomorrow, 8 December, Sunday

    Time Temperature Precipitation Wind Pressure Humidity
    00:00 +9°C° 0 mm 2 mps 747 mmHg 87%
    01:00 +9°C° 0 mm 2 mps 747 mmHg 87%
    02:00 +9°C° 0 mm 2 mps 747 mmHg 87%
    03:00 +9°C° 0 mm 2 mps 748 mmHg 88%
    04:00 +9°C° 0 mm 1 mps 748 mmHg 88%
    05:00 +11°C° 0 mm 1 mps 749 mmHg 82%
    06:00 +12°C° 0 mm 1 mps 749 mmHg 76%
    07:00 +13°C° 0 mm 1 mps 750 mmHg 69%
    08:00 +15°C° 0 mm 1 mps 750 mmHg 63%
    09:00 +16°C° 0 mm 2 mps 750 mmHg 58%
    10:00 +18°C° 0 mm 2 mps 750 mmHg 52%
    11:00 +18°C° 0 mm 2 mps 750 mmHg 51%
    12:00 +19°C° 0 mm 2 mps 750 mmHg 50%
    13:00 +20°C° 0 mm 3 mps 750 mmHg 49%
    14:00 +19°C° 0 mm 3 mps 750 mmHg 52%
    15:00 +19°C° 0 mm 3 mps 750 mmHg 54%
    16:00 +19°C° 0 mm 3 mps 750 mmHg 56%
    17:00 +17°C° 0 mm 2 mps 750 mmHg 63%
    18:00 +16°C° 0 mm 2 mps 750 mmHg 70%
    19:00 +14°C° 0 mm 2 mps 750 mmHg 77%
    20:00 +13°C° 0 mm 2 mps 750 mmHg 83%
    21:00 +10°C° 0 mm 2 mps 751 mmHg 89%
    22:00 +9°C° 0 mm 2 mps 751 mmHg 95%
    23:00 +9°C° 0 mm 2 mps 750 mmHg 94%

    9 December, Monday

    Time Temperature Precipitation Wind Pressure Humidity
    00:00 +9°C° 0 mm 2 mps 750 mmHg 93%
    01:00 +9°C° 0 mm 2 mps 750 mmHg 92%
    02:00 +10°C° 0 mm 2 mps 749 mmHg 90%
    03:00 +10°C° 0 mm 2 mps 749 mmHg 89%
    04:00 +10°C° 0 mm 2 mps 748 mmHg 87%
    05:00 +13°C° 0 mm 2 mps 748 mmHg 78%
    06:00 +15°C° 0 mm 2 mps 748 mmHg 70%
    07:00 +16°C° 0 mm 3 mps 748 mmHg 61%
    08:00 +18°C° 0 mm 3 mps 748 mmHg 54%
    09:00 +20°C° 0 mm 3 mps 748 mmHg 47%
    10:00 +22°C° 0 mm 3 mps 748 mmHg 40%
    11:00 +25°C° 0 mm 3 mps 747 mmHg 37%
    12:00 +27°C° 0 mm 4 mps 746 mmHg 34%
    13:00 +28°C° 0 mm 4 mps 745 mmHg 31%
    14:00 +28°C° 0 mm 4 mps 744 mmHg 32%
    15:00 +28°C° 0 mm 4 mps 743 mmHg 33%
    16:00 +28°C° 0 mm 5 mps 743 mmHg 34%
    17:00 +26°C° 0 mm 4 mps 743 mmHg 41%
    18:00 +25°C° 0 mm 3 mps 742 mmHg 47%
    19:00 +23°C° 0 mm 2 mps 742 mmHg 53%
    20:00 +20°C° 0 mm 2 mps 742 mmHg 59%
    21:00 +18°C° 0 mm 2 mps 742 mmHg 64%
    22:00 +17°C° 0 mm 2 mps 743 mmHg 69%
    23:00 +15°C° 0 mm 2 mps 742 mmHg 76%

    10 December, Tuesday

    Time Temperature Precipitation Wind Pressure Humidity
    00:00 +14°C° 0 mm 1 mps 742 mmHg 84%
    01:00 +13°C° 0 mm 1 mps 742 mmHg 91%
    02:00 +13°C° 0 mm 1 mps 742 mmHg 90%
    03:00 +13°C° 0 mm 1 mps 743 mmHg 89%
    04:00 +13°C° 0 mm 1 mps 743 mmHg 88%
    05:00 +14°C° 0 mm 2 mps 743 mmHg 82%
    06:00 +15°C° 0 mm 2 mps 744 mmHg 76%
    07:00 +16°C° 0 mm 3 mps 744 mmHg 70%
    08:00 +17°C° 0 mm 3 mps 745 mmHg 64%
    09:00 +18°C° 0 mm 4 mps 745 mmHg 58%
    10:00 +18°C° 0 mm 4 mps 746 mmHg 52%
    11:00 +19°C° 0 mm 4 mps 745 mmHg 49%
    12:00 +19°C° 0 mm 4 mps 745 mmHg 45%
    13:00 +20°C° 0 mm 4 mps 745 mmHg 42%
    14:00 +19°C° 0 mm 4 mps 745 mmHg 44%
    15:00 +19°C° 0 mm 4 mps 745 mmHg 46%
    16:00 +18°C° 0 mm 3 mps 745 mmHg 48%
    17:00 +17°C° 0 mm 3 mps 745 mmHg 54%
    18:00 +16°C° 0 mm 2 mps 746 mmHg 60%
    19:00 +14°C° 0 mm 1 mps 746 mmHg 67%
    20:00 +13°C° 0 mm 1 mps 746 mmHg 73%
    21:00 +11°C° 0 mm 1 mps 747 mmHg 79%
    22:00 +10°C° 0 mm 1 mps 747 mmHg 85%
    23:00 +9°C° 0 mm 2 mps 747 mmHg 86%

    11 December, Wednesday

    Time Temperature Precipitation Wind Pressure Humidity
    00:00 +8°C° 0 mm 2 mps 747 mmHg 86%
    01:00 +8°C° 0 mm 2 mps 747 mmHg 87%
    02:00 +8°C° 0 mm 2 mps 746 mmHg 87%
    03:00 +9°C° 0 mm 1 mps 746 mmHg 88%
    04:00 +9°C° 0 mm 1 mps 746 mmHg 89%
    05:00 +11°C° 0 mm 1 mps 746 mmHg 80%
    06:00 +12°C° 0 mm 1 mps 746 mmHg 72%
    07:00 +14°C° 0 mm 1 mps 747 mmHg 64%
    08:00 +15°C° 0 mm 1 mps 747 mmHg 57%
    09:00 +18°C° 0 mm 1 mps 747 mmHg 51%
    10:00 +18°C° 0 mm 2 mps 747 mmHg 45%
    11:00 +19°C° 0 mm 2 mps 747 mmHg 43%
    12:00 +19°C° 0 mm 3 mps 746 mmHg 42%
    13:00 +20°C° 0 mm 3 mps 746 mmHg 41%
    14:00 +19°C° 0 mm 3 mps 746 mmHg 45%
    15:00 +18°C° 0 mm 3 mps 746 mmHg 50%
    16:00 +17°C° 0 mm 3 mps 745 mmHg 54%
    17:00 +14°C° 0 mm 3 mps 746 mmHg 61%
    18:00 +13°C° 0 mm 3 mps 746 mmHg 67%
    19:00 +12°C° 0 mm 2 mps 746 mmHg 73%
    20:00 +12°C° 0 mm 2 mps 746 mmHg 76%
    21:00 +11°C° 0 mm 1 mps 747 mmHg 78%
    22:00 +11°C° 0 mm 1 mps 747 mmHg 80%
    23:00 +10°C° 0 mm 1 mps 746 mmHg 82%
    Show more